Location: Cherryland
(37.6794°N, 122.1033°W)
Time: 13:18:28
(UTC+00:00)

Meteor 2-6 Rocket - Pass Details

Date: 14 December 2025
Orbit: 805 x 912 km, 81.3° (Epoch: 17 January)

Event Time Altitude Azimuth Distance (km) Brightness Sun altitude
Rises 14:13:17 0° 345° (NNW) 3,553 7.1 -12.1°
Reaches altitude 10° 14:15:49 10° 341° (NNW) 2,606 6.4 -11.6°
Maximum altitude 14:21:34 52° 267° (W) 1,114 4.5 -10.6°
Drops below altitude 10° 14:27:13 10° 192° (SSW) 2,555 6.8 -9.5°
Sets 14:29:41 0° 187° (S) 3,478 7.6 -9.1°
